sat.trackr.live / text

‹ back to catalog

HULIANWANG DIGUI-17

NORAD 62977 · 2025-030G

PAYLOAD ACTIVE UNKNOWN

§ Identity

Operator
Country
PRC
Launch date
2025-02-11
Launch site
WSC
Launch vehicle
Mass (kg)
RCS (m²)

External: N2YO · Heavens-Above · Gunter

§ Orbital elements

Epoch: 2026-05-25T04:19:37.232256Z

Period
108.33 min
Inclination
50.0073°
Eccentricity
0.0001230
Mean motion
13.29325212 rev/d
Perigee alt
1,148.4 km
Apogee alt
1,150.2 km
Semi-major
7,527.4 km
B*
6.0752e-5
RAAN
318.1024°
Arg perigee
92.9464°
Mean anomaly
267.1549°
Rev number
6,280

§ Raw data

HULIANWANG DIGUI-171 62977U 25030G   26145.18029204 -.00000096  00000+0  60752-4 0  99942 62977  50.0073 318.1024 0001230  92.9464 267.1549 13.29325212 62807

JSON: /api/v1/satellites/62977 · /tle

For live sub-satellite position, see the globe view (requires WebGL).

§ Visibility from observer

Set your observer location to see the next 7 days of passes ≥ 10°. The values pass through the URL so the page stays shareable.

No JS? Fill the form by hand. The geolocation button needs JavaScript.